This demonstration page uses our WeatherBlox Daily Observations layout. Learn more.

Left ArrowRight Arrow

41.86663, -103.66717

Hourly Observations for October 31, 2018

Temp ( °F °C ) Dew Point ( °F °C ) Humidity (%) Winds ( mph kmh ) Pressure ( in mb ) Visibility ( mi km ) Precip ( " mm )
12:53 am 00:53 Mostly Clear 34 1.1 33 0.6 97 97 WNW 7 11 30.16 1021 10 16 0.00 0.00
1:53 am 01:53 Mostly Cloudy 32 0 32 0 100 100 NW 7 11 30.16 1022 10 16 0.00 0.00
2:53 am 02:53 Clear 30 -1.1 30 -1.1 100 100 NW 7 11 30.18 1022 10 16 0.00 0.00
3:53 am 03:53 Clear 30 -1.1 30 -1.1 100 100 NW 6 9 30.18 1022 10 16 0.00 0.00
4:53 am 04:53 Clear 30 -1.1 30 -1.1 100 100 NW 7 11 30.18 1022 10 16 0.00 0.00
5:53 am 05:53 Clear 29 -1.7 29 -1.7 100 100 NW 7 11 30.19 1022 10 16 0.00 0.00
6:53 am 06:53 Clear 28 -2.2 28 -2.2 100 100 NW 7 11 30.20 1023 10 16 0.00 0.00
7:53 am 07:53 Sunny 27 -2.8 27 -2.8 100 100 NW 9 15 30.22 1023 10 16 0.00 0.00
8:53 am 08:53 Sunny 32 0 31 -0.6 96 96 WNW 7 11 30.23 1024 10 16 0.00 0.00
9:53 am 09:53 Sunny 38 3.3 31 -0.6 76 76 NW 7 11 30.19 1022 10 16 0.00 0.00
10:53 am 10:53 Sunny 45 7.2 32 0 61 61 NNW 7 11 30.16 1021 10 16 0.00 0.00
11:53 am 11:53 Sunny 49 9.4 30 -1.1 48 48 VRB 3 6 30.12 1020 10 16 0.00 0.00
12:53 pm 12:53 Sunny 52 11.1 23 -5 32 32 W 9 15 30.08 1019 10 16 0.00 0.00
1:53 pm 13:53 Sunny 54 12.2 22 -5.6 29 29 W 10 17 30.03 1017 10 16 0.00 0.00
2:53 pm 14:53 Sunny 55 12.8 19 -7.2 24 24 W 10 17 29.99 1016 10 16 0.00 0.00
3:53 pm 15:53 Sunny 55 12.8 18 -7.8 23 23 WNW 10 17 29.96 1015 10 16 0.00 0.00
4:53 pm 16:53 Sunny 54 12.2 18 -7.8 24 24 NW 5 7 29.95 1014 10 16 0.00 0.00
5:53 pm 17:53 Clear 43 6.1 18 -7.8 37 37 NNE 5 7 29.98 1015 10 16 0.00 0.00
6:53 pm 18:53 Clear 34 1.1 18 -7.8 52 52 E 6 9 30.01 1016 10 16 0.00 0.00
7:53 pm 19:53 Clear 36 2.2 19 -7.2 50 50 ESE 5 7 30.00 1016 10 16 0.00 0.00
8:53 pm 20:53 Clear 32 0 20 -6.7 61 61 ESE 7 11 29.98 1015 10 16 0.00 0.00
9:53 pm 21:53 Clear 37 2.8 23 -5 57 57 VRB 3 6 29.94 1014 10 16 0.00 0.00
10:53 pm 22:53 Clear 38 3.3 27 -2.8 65 65 SSW 9 15 29.91 1013 10 16 0.00 0.00
11:53 pm 23:53 Clear 38 3.3 27 -2.8 65 65 Calm 29.89 1012 10 16 0.00 0.00

Powered by AerisWeather